Location: Newark
(42.8481°N, 0.4872°E)
Time: 16:31:40
(UTC+00:00)

A-11 Canister half - Pass Details

Date: 28 October 2020
Orbit: 1525 x 1683 km, 47.3° (Epoch: 22 November)

Event Time Altitude Azimuth Distance (km) Brightness Sun altitude
Rises 18:22:54 0° 286° (WNW) 4,722 12.9 -16.6°
Reaches altitude 10° 18:26:00 10° 288° (WNW) 3,723 12.1 -17.2°
Maximum altitude 18:35:23 75° 14° (NNE) 1,572 8.9 -18.9°
Enters shadow 18:40:53 29° 96° (E) 2,533 9.5 -19.9°
Drops below altitude 10° 18:44:42 10° 101° (E) 3,696 - -20.6°
Sets 18:47:45 0° 103° (ESE) 4,686 - -21.1°
